User: anonymous   Login
Location: Peebles
(55.6412°N, 3.1714°W)
Time: 23:44:16
(UTC+00:00)
Language:

USA 281 - Orbit

View from above orbital plane
View from above orbital plane
View from above satellite
View from above satellite

Ground track
Ground track

The orbit data is extracted from the following two-line orbital elements,

1 43145U 18005A   21329.22901317 0.00000000  00000-0  00000-0 0    06
2 43145 106.0068 219.7444 0002000  67.8039 292.1961 13.48001179    00
Epoch (UTC): 25 November 2021 05:29:46
Eccentricity: 0.0002000
inclination: 106.0068°
perigee height: 1078 km
apogee height: 1081 km
right ascension of ascending node: 219.7444°
argument of perigee: 67.8039°
revolutions per day: 13.48001179
mean anomaly at epoch: 292.1961°
orbit number at epoch: 0

The dashed part of the orbit path shows where the satellite is in the earth's shadow,  

DLR